Location: Cardiff
(53.7833°N, 113.6000°W)
Time: 06:29:33
(UTC+00:00)

NOAA 15 - Pass Details

Date: 03 December 2023
Orbit: 797 x 810 km, 98.6° (Epoch: 04 March)

Event Time Altitude Azimuth Distance (km) Brightness Sun altitude
Rises 13:58:40 0° 26° (NNE) 3,327 7.9 -12.8°
Reaches altitude 10° 14:01:55 10° 47° (NE) 2,388 7.4 -12.4°
Maximum altitude 14:05:14 17° 86° (E) 1,951 7.6 -11.9°
Drops below altitude 10° 14:08:32 10° 125° (SE) 2,372 8.5 -11.4°
Sets 14:11:43 0° 146° (SE) 3,295 8.8 -11.0°
